| time (UTC) | temp C | wind direction | speed KPH | gust KPH | rain 1hr cm | rain 24hr cm | rain mn cm | humidity % | barometer mb |
| 20260906123107 | 20 | 0 | 0.0 | 3.2 | 0.00 | 0.71 | 0.00 | 97 | 1015.3 |
| 20260906121602 | 20 | 0 | 0.0 | 1.6 | 0.00 | 0.71 | 0.00 | 97 | 1015.5 |
| 20260906120126 | 20 | 0 | 0.0 | 1.6 | 0.00 | 0.71 | 0.00 | 97 | 1015.2 |
| 20260906114603 | 20 | 0 | 0.0 | 1.6 | 0.00 | 1.47 | 0.00 | 97 | 1015.0 |
| 20260906113101 | 20 | 0 | 0.0 | 1.6 | 0.00 | 1.47 | 0.00 | 97 | 1014.7 |
| 20260906111559 | 20 | 0 | 0.0 | 1.6 | 0.00 | 1.47 | 0.00 | 97 | 1014.5 |
| 20260906110111 | 20 | 0 | 0.0 | 4.8 | 0.00 | 1.47 | 0.00 | 97 | 1014.4 |
| 20260906104601 | 20 | 0 | 0.0 | 3.2 | 0.00 | 1.47 | 0.00 | 97 | 1014.0 |
| 20260906103101 | 20 | 0 | 0.0 | 4.8 | 0.00 | 1.47 | 0.00 | 97 | 1013.9 |
| 20260906101604 | 20 | 0 | 0.0 | 3.2 | 0.00 | 1.47 | 0.00 | 97 | 1013.8 |
| 20260906100105 | 20 | 0 | 0.0 | 3.2 | 0.00 | 1.47 | 0.00 | 96 | 1013.7 |
| 20260906094606 | 20 | 0 | 0.0 | 4.8 | 0.00 | 1.47 | 0.00 | 96 | 1013.7 |
| 20260906093117 | 20 | 360 | 0.0 | 3.2 | 0.00 | 1.47 | 0.00 | 96 | 1013.8 |
| 20260906091605 | 20 | 360 | 0.0 | 1.6 | 0.00 | 1.47 | 0.00 | 96 | 1013.8 |
| 20260906090133 | 20 | 0 | 0.0 | 3.2 | 0.00 | 1.47 | 0.00 | 96 | 1013.9 |
| 20260906084602 | 20 | 360 | 0.0 | 3.2 | 0.00 | 1.47 | 0.00 | 96 | 1013.9 |
| 20260906083100 | 20 | 0 | 0.0 | 1.6 | 0.00 | 1.47 | 0.00 | 96 | 1013.8 |
| 20260906081604 | 20 | 0 | 0.0 | 1.6 | 0.00 | 1.47 | 0.00 | 96 | 1013.8 |
| 20260906080105 | 20 | 0 | 0.0 | 1.6 | 0.00 | 1.47 | 0.00 | 96 | 1013.8 |
| 20260906074604 | 20 | 0 | 0.0 | 1.6 | 0.00 | 1.47 | 0.00 | 96 | 1013.6 |
| 20260906073110 | 20 | 0 | 0.0 | 1.6 | 0.00 | 1.47 | 0.00 | 96 | 1013.7 |
| 20260906071611 | 20 | 0 | 0.0 | 3.2 | 0.00 | 1.47 | 0.00 | 96 | 1013.7 |
| 20260906070105 | 20 | 360 | 0.0 | 1.6 | 0.00 | 1.47 | 0.00 | 96 | 1013.7 |
| 20260906064604 | 20 | 360 | 1.6 | 3.2 | 0.00 | 1.47 | 0.00 | 96 | 1013.8 |
| 20260906063103 | 20 | 0 | 0.0 | 1.6 | 0.00 | 1.47 | 0.00 | 95 | 1013.7 |
| 20260906061600 | 20 | 360 | 0.0 | 0.0 | 0.00 | 1.47 | 0.00 | 95 | 1013.8 |
| 20260906054603 | 20 | 360 | 0.0 | 1.6 | 0.00 | 1.47 | 0.00 | 95 | 1013.8 |
| 20260906053105 | 20 | 0 | 0.0 | 0.0 | 0.00 | 1.47 | 0.00 | 95 | 1013.8 |
| 20260906051607 | 20 | 0 | 0.0 | 1.6 | 0.00 | 1.47 | 0.00 | 95 | 1013.7 |
| 20260906050126 | 20 | 0 | 0.0 | 1.6 | 0.00 | 1.47 | 0.00 | 94 | 1013.7 |
| 20260906044602 | 20 | 0 | 0.0 | 1.6 | 0.00 | 1.47 | 0.00 | 94 | 1013.7 |
| 20260906043109 | 20 | 0 | 0.0 | 0.0 | 0.00 | 1.47 | 0.00 | 95 | 1013.6 |
| 20260906041606 | 20 | 0 | 0.0 | 0.0 | 0.00 | 1.47 | 0.00 | 95 | 1013.5 |
| 20260906040114 | 21 | 0 | 0.0 | 1.6 | 0.00 | 1.47 | 0.00 | 95 | 1013.6 |
| 20260906034603 | 21 | 0 | 0.0 | 0.0 | 0.00 | 1.47 | 1.47 | 95 | 1013.6 |
| 20260906033103 | 21 | 0 | 0.0 | 0.0 | 0.00 | 1.47 | 1.47 | 95 | 1013.9 |
| 20260906031606 | 21 | 0 | 0.0 | 1.6 | 0.00 | 1.47 | 1.47 | 95 | 1014.0 |
| 20260906030134 | 21 | 0 | 0.0 | 1.6 | 0.00 | 1.47 | 1.47 | 94 | 1014.1 |
| 20260906024609 | 21 | 0 | 0.0 | 1.6 | 0.00 | 1.47 | 1.47 | 94 | 1014.3 |
| 20260906023112 | 21 | 0 | 0.0 | 3.2 | 0.00 | 1.47 | 1.47 | 94 | 1014.2 |
| 20260906021612 | 21 | 0 | 0.0 | 0.0 | 0.00 | 1.47 | 1.47 | 93 | 1014.0 |
| 20260906014625 | 21 | 0 | 0.0 | 1.6 | 0.00 | 1.47 | 1.47 | 92 | 1013.9 |
| 20260906013103 | 22 | 0 | 0.0 | 1.6 | 0.00 | 1.47 | 1.47 | 92 | 1013.7 |
| 20260906011606 | 22 | 0 | 0.0 | 1.6 | 0.00 | 1.47 | 1.47 | 91 | 1013.5 |
| 20260906004608 | 22 | 0 | 0.0 | 1.6 | 0.00 | 1.47 | 1.47 | 90 | 1013.1 |
| 20260906003109 | 23 | 0 | 0.0 | 1.6 | 0.00 | 1.47 | 1.47 | 89 | 1012.8 |
| 20260906001603 | 23 | 0 | 0.0 | 1.6 | 0.00 | 1.47 | 1.47 | 88 | 1013.0 |
| 20260906000104 | 24 | 0 | 0.0 | 1.6 | 0.00 | 1.47 | 1.47 | 87 | 1013.2 |
| 20260905234615 | 24 | 0 | 0.0 | 0.0 | 0.00 | 1.47 | 1.47 | 86 | 1013.2 |
| 20260905233104 | 24 | 0 | 0.0 | 0.0 | 0.00 | 1.47 | 1.47 | 84 | 1013.1 |
| 20260905231603 | 25 | 0 | 0.0 | 0.0 | 0.00 | 1.47 | 1.47 | 82 | 1013.0 |
| 20260905230109 | 25 | 0 | 0.0 | 1.6 | 0.00 | 1.47 | 1.47 | 82 | 1013.1 |
| 20260905224610 | 26 | 0 | 0.0 | 3.2 | 0.00 | 1.47 | 1.47 | 80 | 1013.1 |
| 20260905223100 | 26 | 0 | 0.0 | 1.6 | 0.00 | 1.47 | 1.47 | 79 | 1013.2 |
| 20260905221600 | 26 | 0 | 0.0 | 3.2 | 0.00 | 1.47 | 1.47 | 78 | 1013.2 |
| 20260905220107 | 26 | 0 | 1.6 | 4.8 | 0.00 | 1.47 | 1.47 | 76 | 1013.2 |
| 20260905214610 | 27 | 0 | 0.0 | 3.2 | 0.00 | 1.47 | 1.47 | 74 | 1013.2 |
| 20260905213109 | 27 | 0 | 1.6 | 6.4 | 0.00 | 1.47 | 1.47 | 72 | 1012.9 |
| 20260905211601 | 27 | 0 | 0.0 | 3.2 | 0.00 | 1.47 | 1.47 | 75 | 1012.8 |
| 20260905210109 | 27 | 0 | 0.0 | 6.4 | 0.00 | 1.47 | 1.47 | 74 | 1012.8 |
| 20260905204600 | 27 | 0 | 1.6 | 9.7 | 0.00 | 1.47 | 1.47 | 71 | 1013.0 |
| 20260905203108 | 27 | 288 | 0.0 | 11.3 | 0.00 | 1.47 | 1.47 | 71 | 1012.8 |
| 20260905201607 | 27 | 0 | 0.0 | 3.2 | 0.00 | 1.47 | 1.47 | 72 | 1013.0 |
| 20260905200107 | 27 | 0 | 0.0 | 4.8 | 0.00 | 1.47 | 1.47 | 73 | 1013.1 |
| 20260905194608 | 27 | 302 | 0.0 | 4.8 | 0.00 | 1.47 | 1.47 | 72 | 1013.2 |
| 20260905193106 | 27 | 318 | 0.0 | 4.8 | 0.00 | 1.47 | 1.47 | 71 | 1013.3 |
| 20260905191615 | 27 | 234 | 0.0 | 4.8 | 0.00 | 1.47 | 1.47 | 70 | 1013.5 |
| 20260905190105 | 27 | 0 | 0.0 | 4.8 | 0.00 | 1.47 | 1.47 | 71 | 1013.9 |
| 20260905184611 | 27 | 263 | 1.6 | 6.4 | 0.00 | 1.47 | 1.47 | 74 | 1013.9 |
| 20260905183103 | 26 | 0 | 1.6 | 4.8 | 0.00 | 1.47 | 1.47 | 73 | 1014.1 |
| 20260905181604 | 26 | 0 | 0.0 | 4.8 | 0.00 | 1.47 | 1.47 | 75 | 1014.3 |
| 20260905174614 | 26 | 116 | 0.0 | 4.8 | 0.00 | 1.47 | 1.47 | 75 | 1014.3 |
| 20260905173109 | 26 | 0 | 1.6 | 8.0 | 0.00 | 1.47 | 1.47 | 74 | 1014.3 |
| 20260905171559 | 26 | 0 | 1.6 | 9.7 | 0.00 | 1.47 | 1.47 | 75 | 1014.5 |
| 20260905170106 | 26 | 0 | 1.6 | 6.4 | 0.00 | 1.47 | 1.47 | 78 | 1014.6 |
| 20260905164602 | 25 | 0 | 0.0 | 4.8 | 0.00 | 1.47 | 1.47 | 80 | 1015.2 |
| 20260905163105 | 25 | 0 | 0.0 | 4.8 | 0.00 | 1.47 | 1.47 | 79 | 1015.7 |
| 20260905161604 | 25 | 85 | 1.6 | 4.8 | 0.00 | 1.47 | 1.47 | 85 | 1015.7 |
| 20260905160105 | 23 | 349 | 0.0 | 3.2 | 0.00 | 1.47 | 1.47 | 88 | 1015.5 |
| 20260905154604 | 23 | 318 | 1.6 | 4.8 | 0.00 | 1.47 | 1.47 | 92 | 1015.8 |
| 20260905153102 | 22 | 0 | 0.0 | 6.4 | 0.00 | 1.47 | 1.47 | 94 | 1015.9 |
| 20260905151606 | 22 | 0 | 1.6 | 4.8 | 0.00 | 1.47 | 1.47 | 97 | 1015.8 |
| 20260905150104 | 21 | 0 | 0.0 | 6.4 | 0.00 | 1.47 | 1.47 | 97 | 1015.7 |
| 20260905144600 | 21 | 0 | 0.0 | 4.8 | 0.00 | 1.47 | 1.47 | 97 | 1014.7 |
| 20260905143109 | 21 | 360 | 0.0 | 4.8 | 0.00 | 1.47 | 1.47 | 97 | 1013.9 |
| 20260905141615 | 21 | 360 | 0.0 | 3.2 | 0.03 | 1.47 | 1.47 | 97 | 1014.2 |
| 20260905140106 | 21 | 0 | 0.0 | 3.2 | 0.03 | 1.47 | 1.47 | 97 | 1014.5 |
| 20260905134607 | 21 | 0 | 0.0 | 3.2 | 0.03 | 1.47 | 1.47 | 97 | 1014.6 |
| 20260905133102 | 21 | 0 | 0.0 | 3.2 | 0.03 | 1.47 | 1.47 | 97 | 1015.1 |
| 20260905131608 | 21 | 0 | 0.0 | 1.6 | 0.03 | 1.47 | 1.45 | 97 | 1015.1 |
| 20260905130106 | 20 | 360 | 1.6 | 3.2 | 0.66 | 1.47 | 1.45 | 96 | 1015.8 |
| 20260905124602 | 20 | 360 | 0.0 | 3.2 | 0.91 | 1.47 | 1.45 | 96 | 1015.3 |